Location: Sceptre
(50.8619°N, 109.2670°W)
Time: 16:40:04
(UTC+00:00)

FENGYUN 1C DEB - Visible Passes

Search period start: 06 October 2022 00:00
Search period end: 16 October 2022 00:00
Orbit: 714 x 803 km, 99.4° (Epoch: 06 October)

Date Brightness Start Highest point End Pass type
(mag) Time Alt. Az. Time Alt. Az. Time Alt. Az.
06 Oct ? 01:28:55 10° N 01:33:39 46° WNW 01:38:27 10° SW visible
06 Oct ? 09:33:03 10° E 09:35:36 15° NE 09:38:12 10° NNE visible
06 Oct ? 11:08:48 10° SSE 11:13:36 77° ENE 11:18:26 10° NNW visible
06 Oct ? 12:49:58 10° SW 12:52:57 16° W 12:55:57 10° NW visible
07 Oct ? 02:29:57 10° NNW 02:33:13 18° NW 02:36:31 10° W visible
07 Oct ? 10:30:40 10° SE 10:35:04 37° ENE 10:39:31 10° N visible
07 Oct ? 12:09:31 10° SSW 12:13:52 34° W 12:18:16 10° NNW visible
08 Oct ? 01:50:31 10° N 01:54:56 33° WNW 01:59:24 10° WSW visible
08 Oct ? 09:53:17 10° E 09:56:43 20° NE 10:00:12 10° N visible
08 Oct ? 11:30:12 10° S 11:34:59 73° WSW 11:39:51 10° NNW visible
09 Oct ? 01:11:28 10° N 01:16:25 64° WNW 01:21:28 10° SSW visible
09 Oct ? 02:52:03 10° NNW 02:54:18 13° NW 02:56:35 10° WNW visible
09 Oct ? 09:17:26 10° ENE 09:18:35 11° NE 09:19:45 10° NNE visible
09 Oct ? 10:51:39 10° SE 10:56:19 54° ENE 11:01:04 10° N visible
09 Oct ? 12:31:36 10° SW 12:35:24 23° W 12:39:15 10° NW visible
10 Oct ? 02:12:10 10° N 02:16:06 24° WNW 02:20:06 10° WSW visible
10 Oct ? 10:13:49 10° ESE 10:17:51 27° ENE 10:21:56 10° N visible
10 Oct ? 11:51:45 10° S 11:56:23 48° W 12:01:07 10° NNW visible
11 Oct ? 01:32:55 10° N 01:37:42 45° WNW 01:42:32 10° SW visible
11 Oct ? 09:36:54 10° E 09:39:35 15° NE 09:42:17 10° NNE visible
11 Oct ? 11:12:47 10° SSE 11:17:35 80° ENE 11:22:28 10° NNW visible
11 Oct ? 12:54:05 10° SW 12:56:58 16° W 12:59:53 10° NW visible
12 Oct ? 02:33:55 10° NNW 02:37:11 18° NW 02:40:29 10° W visible
12 Oct ? 10:34:33 10° SE 10:38:59 39° ENE 10:43:30 10° N visible
12 Oct ? 12:13:29 10° SSW 12:17:48 33° W 12:22:12 10° NNW visible
13 Oct ? 01:54:25 10° N 01:58:51 32° WNW 02:03:22 10° WSW visible
13 Oct ? 09:57:04 10° ESE 10:00:36 21° NE 10:04:10 10° N visible
13 Oct ? 11:34:04 10° S 11:38:52 71° WSW 11:43:45 10° NNW visible
14 Oct ? 01:15:19 10° N 01:20:19 63° WNW 01:25:24 10° SSW visible
14 Oct ? 02:55:54 10° NNW 02:58:10 13° NW 03:00:26 10° WNW visible
14 Oct ? 09:20:58 10° ENE 09:22:24 11° NE 09:23:51 10° NNE visible
14 Oct ? 10:55:26 10° SE 11:00:08 56° ENE 11:04:56 10° N visible
14 Oct ? 12:35:29 10° SW 12:39:15 23° W 12:43:05 10° NW visible
15 Oct ? 02:15:58 10° N 02:19:55 24° WNW 02:23:56 10° WSW visible
15 Oct ? 10:17:31 10° ESE 10:21:37 28° ENE 10:25:46 10° N visible
15 Oct ? 11:55:32 10° S 12:00:09 47° W 12:04:54 10° NNW visible
